Probability
1 1 0 0 0 0 1 2 2 1 0 0 0 0 0 0 0 0 0 0 0 0 0 0 0 0 0 0 0 0 0 0 0 0 0 0 0 0
3 2 1 1 1 1 0 1 1 0 0 0 0 0 0 0 0 0 0 0 0 0 0 0 0 0 0 0 0 0 0 0 0 0 0 0 0 0
5 4 3 3 2 2 1 1 1 0 0 0 0 0 0 0 0 0 0 0 0 0 0 0 0 0 0 0 0 0 0 0 0 0 0 0 0 0
9 8 7 5 4 3 3 3 3 2 1 0 1 1 1 0 0 0 0 0 0 0 0 0 0 0 0 0 0 0 0 0 0 0 0 0 0 0
13 12 10 7 5 3 3 4 4 4 3 1 1 2 2 1 1 1 0 0 0 0 0 0 0 0 0 0 0 0 0 0 0 0 0 0 0 0
16 14 12 9 6 4 3 4 4 4 3 1 1 2 2 1 1 2 1 0 0 0 0 0 0 0 0 0 0 0 0 0 0 0 0 0 0 0
17 15 13 11 8 5 5 5 6 4 3 2 2 3 3 1 1 1 1 0 0 0 0 0 0 0 0 0 0 0 0 0 0 0 0 0 0 0
19 18 16 13 9 7 6 5 5 4 4 4 3 3 3 2 1 1 0 0 0 1 0 0 0 0 0 0 0 0 0 0 0 0 0 0 0 0
19 18 17 15 12 11 9 6 5 4 4 5 5 4 3 3 2 1 0 0 0 0 0 0 1 1 0 0 0 0 0 0 0 0 0 0 0 0
17 16 15 16 16 16 15 11 9 7 4 3 4 4 3 2 2 1 0 0 0 0 0 0 1 2 1 0 0 0 0 0 0 0 0 0 0 0
15 13 13 16 16 16 16 16 14 10 5 2 2 1 1 1 1 0 1 1 0 0 0 0 1 2 2 1 0 0 0 0 0 0 0 0 0 0
15 14 13 12 11 10 12 15 14 11 7 5 2 1 1 1 1 1 2 2 1 1 0 0 1 2 2 1 0 0 0 0 0 0 0 0 0 0
14 15 13 9 5 4 7 11 11 8 8 8 5 3 2 2 2 2 3 3 3 2 1 0 0 1 2 2 1 0 0 0 0 0 0 0 0 0
12 12 10 6 3 1 3 5 5 4 6 8 6 4 3 3 3 3 3 3 2 2 1 0 0 0 1 2 1 0 0 0 0 0 0 0 0 0
7 6 5 4 3 2 2 2 2 3 6 7 6 4 2 2 3 3 3 2 1 1 0 0 0 0 1 2 2 1 0 0 0 0 0 0 0 0
4 3 3 3 3 3 3 2 2 3 5 6 5 4 2 2 3 3 2 1 1 1 1 0 0 0 0 1 1 1 0 0 0 0 0 0 0 0
2 3 3 4 3 3 3 3 3 3 4 5 4 3 3 3 3 3 2 1 1 1 1 0 0 0 0 0 0 0 0 0 0 0 0 0 0 0
1 1 3 4 4 3 3 2 2 2 3 3 3 3 3 3 3 3 2 0 0 0 0 0 0 0 0 0 0 0 0 0 0 0 0 0 0 0
0 0 2 4 5 4 2 1 1 1 1 2 3 3 3 3 3 3 2 1 1 0 0 0 0 0 0 0 0 0 0 0 0 0 0 0 0 0
0 0 0 2 4 4 3 1 0 0 0 1 2 3 3 3 3 3 3 3 2 1 1 1 0 0 0 0 0 0 0 0 0 0 0 0 0 0
0 0 0 1 2 4 2 1 0 0 0 0 0 1 1 2 3 3 3 3 3 3 2 2 1 0 0 0 0 0 0 0 0 0 0 0 0 0
0 0 0 0 1 2 1 0 0 0 0 1 1 1 1 1 3 3 3 3 3 3 3 3 2 1 1 1 1 1 1 0 0 0 0 0 0 0
0 0 0 0 1 1 1 0 0 0 1 2 2 2 2 1 2 3 3 3 3 3 3 3 2 1 2 2 2 2 2 1 0 0 0 0 0 0
Wind_Speed
4 4 3 3 3 3 3 3 3 2 3 2 1 1 1 1 1 1 2 2 2 2 3 3 3 3 3 2 2 2 2 3 4 4 4 4 5 5
3 3 3 3 2 3 3 3 3 3 3 2 2 1 1 1 1 1 1 1 2 2 3 3 3 3 3 2 2 2 2 2 3 3 3 3 3 4
3 4 4 3 2 2 2 3 3 3 3 2 1 1 1 1 1 1 1 1 1 2 2 2 3 2 2 2 2 2 2 2 3 3 3 3 3 4
4 4 4 3 3 3 3 3 3 3 3 3 2 2 2 2 2 2 1 1 1 2 2 2 3 3 2 2 2 2 2 2 2 2 2 2 3 3
5 5 4 4 4 3 3 3 3 2 2 2 2 1 1 1 1 1 1 1 1 2 2 2 3 3 3 3 3 2 2 2 2 2 2 3 2 2
5 5 5 5 5 5 4 4 3 3 2 2 2 1 2 1 1 2 2 1 2 1 1 2 3 3 3 3 3 3 3 3 2 2 2 2 3 3
4 4 5 5 6 5 4 4 4 3 3 3 2 2 2 2 3 2 3 2 2 2 2 2 2 2 2 3 4 4 4 4 4 3 3 3 3 3
5 4 4 5 6 6 6 6 6 5 4 3 3 4 4 4 3 3 2 2 2 2 3 2 2 2 2 2 3 4 4 4 4 4 4 3 3 3
5 4 3 3 4 3 4 4 5 5 6 5 5 5 4 5 4 4 4 4 3 1 2 2 2 3 2 2 4 5 5 5 5 5 5 4 4 3
4 4 4 3 3 4 3 3 3 3 5 4 5 5 4 4 5 5 5 3 1 1 2 2 2 2 1 2 4 5 5 6 6 5 5 4 4 4
4 4 4 4 3 4 4 4 3 3 2 3 3 2 2 2 3 3 3 2 2 2 2 2 2 1 1 1 2 5 6 6 6 5 5 5 4 4
3 3 3 3 3 5 5 4 4 3 2 1 1 0 0 1 2 3 4 3 2 2 3 3 2 1 1 1 1 2 3 4 5 5 5 5 5 3
3 2 2 3 4 4 5 4 4 3 2 2 1 1 1 0 1 1 2 2 3 2 2 3 2 2 2 1 1 1 2 2 2 3 4 5 5 5
3 2 2 3 4 4 4 3 3 3 2 2 1 1 0 0 0 1 1 1 1 2 2 3 2 3 3 2 2 1 2 2 2 2 2 3 4 5
2 2 2 2 3 2 2 3 3 2 2 2 1 1 1 1 1 1 1 1 1 1 1 2 3 3 3 3 2 2 2 2 2 2 2 3 3 3
1 1 2 2 1 1 2 2 2 2 3 2 2 1 0 0 1 1 1 1 1 1 1 1 2 3 3 2 2 2 2 2 2 2 2 2 2 3
2 1 1 2 2 1 1 1 2 2 2 2 2 1 1 1 0 0 0 0 1 0 1 1 0 1 2 2 2 2 2 2 2 2 2 2 2 3
3 2 2 2 2 2 2 2 1 2 2 2 2 2 2 1 1 0 0 1 1 0 0 1 0 1 1 1 2 3 2 2 2 2 2 2 3 2
3 2 2 2 2 2 2 2 2 2 2 2 2 2 1 1 1 1 1 1 1 0 0 0 0 1 1 2 1 3 3 2 2 2 2 2 3 2
2 2 2 2 2 3 3 3 2 2 2 2 2 2 2 2 2 1 1 1 1 1 1 0 1 1 2 2 1 1 3 3 2 2 2 2 2 2
2 2 2 2 2 2 2 2 2 2 2 2 2 2 2 2 2 2 2 2 2 1 1 1 2 2 1 1 1 1 1 2 2 2 2 1 1 1
2 2 2 2 2 2 2 2 2 1 2 2 2 2 1 2 2 2 2 2 1 1 1 1 1 0 1 1 1 1 1 1 0 1 2 2 2 2
2 2 2 2 2 2 2 2 2 2 2 2 2 2 2 1 1 2 2 2 2 1 1 0 0 0 1 1 1 1 2 1 0 0 1 2 4 5
Wind_Direction
212 215 218 222 210 213 209 198 195 234 258 244 244 239 221 212 217 201 202 193 192 190 185 187 194 195 191 192 204 215 219 219 223 226 225 230 231 216
217 218 222 226 220 213 214 213 205 208 237 237 229 252 232 215 193 199 208 189 186 178 179 179 182 190 193 189 199 212 218 219 214 208 213 217 202 198
226 225 232 219 211 211 207 206 207 197 221 247 223 232 202 208 205 199 212 216 206 186 187 179 171 170 177 187 191 201 217 218 205 200 203 199 186 176
227 225 235 221 211 213 208 211 215 209 206 233 230 213 213 211 215 219 220 212 219 196 188 182 180 179 172 169 179 180 182 181 175 172 167 164 161 168
221 219 226 214 221 220 217 218 220 214 201 210 233 221 226 204 211 225 225 232 226 210 199 200 199 192 187 184 179 173 169 173 174 168 154 146 150 162
220 220 222 214 220 217 218 220 212 203 199 205 226 230 234 214 206 221 233 230 234 221 205 202 208 205 201 196 192 186 180 180 174 166 157 154 158 163
224 226 228 221 219 214 213 209 200 202 202 215 226 224 222 215 223 215 226 230 229 213 211 212 211 217 215 218 214 201 190 186 179 166 156 149 146 150
228 234 233 230 229 220 219 210 198 199 207 212 225 229 233 225 216 213 211 218 239 201 205 226 202 223 225 218 207 193 189 183 173 160 151 147 148 147
223 227 229 231 214 214 217 211 209 210 205 205 219 231 234 220 205 210 213 220 230 194 188 225 207 231 232 214 189 181 173 166 163 160 158 163 166 164
223 217 211 219 216 204 202 207 218 222 222 216 227 238 238 221 210 215 216 215 220 199 195 223 211 228 228 204 183 181 173 168 167 166 166 173 179 178
227 221 211 211 216 194 194 212 230 247 237 221 233 251 254 216 190 176 178 191 227 215 197 220 213 215 218 216 185 179 175 174 176 177 178 180 182 182
224 221 218 217 208 190 200 207 227 241 213 199 205 325 208 182 183 196 194 196 208 221 193 200 195 183 213 210 191 174 180 186 187 190 191 189 184 185
218 222 220 200 197 188 195 209 221 208 178 175 159 124 94 113 170 205 201 197 200 220 186 185 187 192 199 189 198 186 180 177 179 190 197 199 191 187
217 220 204 181 187 183 186 199 186 156 137 136 135 150 170 214 213 181 171 183 208 214 188 180 185 189 185 187 202 189 188 185 176 179 192 191 196 198
210 199 184 163 165 178 178 160 150 144 144 154 185 218 241 232 153 127 123 122 87 44 165 198 195 194 197 199 197 188 193 202 195 190 190 195 197 196
192 140 127 123 132 121 118 140 151 155 161 180 192 197 167 111 119 108 120 110 84 19 358 251 211 194 200 208 199 205 194 191 190 195 197 209 208 206
157 136 149 155 157 158 148 145 149 149 169 182 175 167 171 176 163 126 120 118 150 203 347 352 286 195 197 192 192 200 193 189 187 180 188 215 223 219
143 165 186 187 187 189 181 173 164 175 189 191 191 190 192 193 183 139 138 149 168 214 292 355 69 113 150 232 221 214 208 206 193 184 189 215 237 227
145 172 192 200 197 193 191 189 196 197 188 183 192 199 194 191 178 178 176 152 158 221 287 281 290 187 225 254 234 203 212 210 189 188 203 218 240 244
169 188 201 207 202 197 196 196 195 192 177 177 191 197 181 178 183 188 198 193 193 204 222 243 257 245 237 251 259 237 207 210 203 208 214 228 251 257
191 202 206 205 205 203 192 188 191 188 177 180 187 193 194 185 189 192 197 191 194 204 216 243 268 273 251 211 227 254 249 220 209 215 204 204 237 237
189 193 194 191 193 192 174 170 173 179 178 188 198 196 196 194 193 191 193 201 211 221 234 279 350 255 208 224 254 282 304 330 299 169 194 200 217 239
190 185 180 179 182 181 175 177 184 190 195 198 201 202 195 194 200 195 203 209 207 212 226 253 314 244 251 249 258 282 292 290 299 274 269 276 260 264